COSMOS 2303

导读

COSMOS 2303(宇宙2303)是独联体(CIS)于1994年12月26日发射的军用卫星,隶属于苏联/俄罗斯“宇宙”(Kosmos/COSMOS)卫星系列。该系列以保密军事任务为主,涵盖侦察、早期预警、技术试验等领域。作为冷战后独联体首批发射的军事卫星,它延续了苏联航天发展脉络,承担战略空间监测任务,至今仍在轨道运行,见证了俄罗斯航天从苏联解体后的过渡进程。

基本信息
目录编号:
23445
目录名称:
COSMOS 2303
国际标识:
1994-086E
轨道中心:
EARTH
卫星名称:
COSMOS 2303
卫星全名:
--
卫星状态:
在轨 (已飞行11494 天)
发射日期:
1994-12-26 UTC
国别 :
俄罗斯(独联体) (CIS)
星等 :
--
轨道信息
数据来源 国际轨道数据
星历时间: 2026-06-15T07:23:54+0800
6小时前
查看轨道信息
半长轴: 7798.761km
偏心率: 0.0010896
轨道倾角: 82.575°
近地点辐角 208.397°
升交点赤经 347.426°
平近点角 271.490°
近地点: 1412.126km
远地点: 1429.122km
周期: 114.235分钟
每日圈数: 12.605626
详细信息
使用方式:
暂无
2D轨道图
3D轨道图
轨道高度分析图
轨道倾角分析图
轨道综合分析图
查看轨道综合分析图